Latest Weather Observations for Newdegate

IDW60801

Issued at 8:05 am WST Wednesday 24 September 2014 (issued every 30 minutes, with the page automatically refreshed every 10 minutes)

About weather observations | Map of weather stations | Latest weather observations for WA | Other Formats
Station Details ID: 010692 Name: NEWDEGATE RESEARCH STATION Lat: -33.11 Lon: 118.84 Height: 320.0 m
Data from the previous 72 hours. | See also: Recent months at Newdegate
Date/Time
WST
Temp
°C
App
Temp
°C
Dew
Point
Rel
Hum
%
Delta-T
°C
Wind Press
QNH
hPa
Press
MSL
hPa
Rain
since 9 am
mm
Dir
 
Spd
km/h
Gust
km/h
Spd
kts
Gust
kts
24/08:00am 12.0 11.5 9.4 84 1.3 NNE 2 4 1 2 1025.3 1025.4 0.0
24/07:30am 9.6 9.1 7.9 89 0.8 NNW 0 0 0 0 1025.4 1025.5 0.0
24/07:00am 8.0 7.2 6.5 90 0.7 CALM 0 0 0 0 1025.2 1025.3 0.0
24/06:30am 5.4 4.0 3.6 88 0.8 CALM 0 0 0 0 1025.0 1025.1 0.0
24/06:00am 5.7 3.9 3.7 87 0.9 NW 2 4 1 2 1024.9 1025.0 0.0
24/05:30am 6.1 4.8 3.9 86 1.0 CALM 0 4 0 2 1024.6 1024.7 0.0
24/05:00am 7.2 5.0 5.2 87 0.9 WNW 6 7 3 4 1024.3 1024.4 0.0
24/04:30am 7.2 4.9 5.0 86 1.0 W 6 7 3 4 1024.4 1024.5 0.0
24/04:00am 7.6 5.8 5.2 85 1.1 NW 4 6 2 3 1024.1 1024.2 0.0
24/03:30am 8.2 6.1 5.7 84 1.2 W 6 9 3 5 1024.5 1024.6 0.0
24/03:00am 9.0 7.0 6.3 83 1.3 W 6 7 3 4 1024.5 1024.6 0.0
24/02:30am 10.1 8.7 7.2 82 1.4 W 4 6 2 3 1024.6 1024.7 0.0
24/02:00am 10.4 8.7 7.6 83 1.4 W 6 9 3 5 1024.6 1024.7 0.0
24/01:30am 10.6 9.4 8.0 84 1.3 W 4 6 2 3 1024.9 1025.0 0.0
24/01:00am 10.8 9.6 8.2 84 1.3 NW 4 6 2 3 1025.0 1025.1 0.0
24/12:30am 11.0 9.9 8.4 84 1.3 WNW 4 6 2 3 1025.4 1025.5 0.0
24/12:00am 11.1 9.6 8.3 83 1.4 WNW 6 7 3 4 1025.6 1025.6 0.0
 
Date/Time
WST
Temp
°C
App
Temp
°C
Dew
Point
Rel
Hum
%
Delta-T
°C
Wind Press
QNH
hPa
Press
MSL
hPa
Rain
since 9 am
mm
Dir
 
Spd
km/h
Gust
km/h
Spd
kts
Gust
kts
23/11:30pm 11.2 9.7 8.4 83 1.4 W 6 7 3 4 1025.9 1025.9 0.0
23/11:00pm 11.1 10.0 8.3 83 1.4 WNW 4 6 2 3 1025.8 1025.8 0.0
23/10:30pm 11.1 10.0 8.5 84 1.3 W 4 6 2 3 1025.8 1025.8 0.0
23/10:00pm 11.3 11.0 8.5 83 1.4 CALM 0 0 0 0 1025.4 1025.5 0.0
23/09:30pm 11.5 10.4 8.4 81 1.6 W 4 6 2 3 1026.1 1026.1 0.0
23/09:00pm 11.7 9.5 8.0 78 1.8 SSW 9 11 5 6 1026.1 1026.1 0.0
23/08:30pm 11.5 9.9 8.0 79 1.7 SSW 6 7 3 4 1026.0 1026.0 0.0
23/08:00pm 11.7 10.0 8.2 79 1.7 SW 7 13 4 7 1025.8 1025.8 0.0
23/07:30pm 11.9 11.1 8.2 78 1.9 WNW 2 4 1 2 1025.2 1025.3 0.0
23/07:00pm 11.7 10.0 7.6 76 2.0 SW 6 7 3 4 1025.3 1025.4 0.0
23/06:30pm 12.0 10.8 7.9 76 2.0 WSW 4 6 2 3 1025.0 1025.1 0.0
23/06:00pm 12.2 10.8 7.1 71 2.5 SW 4 7 2 4 1025.0 1025.1 0.0
23/05:30pm 12.5 10.5 7.0 69 2.7 SW 7 11 4 6 1024.9 1025.0 0.0
23/05:00pm 12.7 10.3 7.0 68 2.8 SW 9 17 5 9 1024.6 1024.7 0.0
23/04:30pm 13.0 10.6 6.8 66 3.0 SW 9 15 5 8 1024.4 1024.5 0.0
23/04:00pm 13.2 9.7 7.0 66 3.0 SSW 15 20 8 11 1024.1 1024.2 0.0
23/03:30pm 13.6 10.8 6.9 64 3.3 SW 11 19 6 10 1023.9 1023.9 0.0
23/03:00pm 14.0 11.3 7.3 64 3.3 SW 11 17 6 9 1024.0 1024.0 0.0
23/02:30pm 13.9 11.1 7.0 63 3.4 WSW 11 17 6 9 1024.0 1024.0 0.0
23/02:00pm 13.7 10.5 6.8 63 3.4 SSW 13 20 7 11 1024.1 1024.2 0.0
23/01:30pm 13.9 12.0 7.4 65 3.2 WSW 7 15 4 8 1024.1 1024.2 0.0
23/01:00pm 13.4 10.6 7.0 65 3.1 SSW 11 19 6 10 1024.2 1024.3 0.0
23/12:30pm 13.4 10.6 7.0 65 3.2 S 11 19 6 10 1024.3 1024.4 0.0
23/12:00pm 12.9 10.8 6.5 65 3.1 SSW 7 13 4 7 1024.8 1024.9 0.0
23/11:30am 12.9 10.4 6.5 65 3.1 WSW 9 15 5 8 1025.1 1025.2 0.0
23/11:00am 12.6 10.0 6.2 65 3.1 WSW 9 13 5 7 1025.3 1025.4 0.0
23/10:30am 12.8 10.3 6.4 65 3.1 SSW 9 15 5 8 1025.6 1025.6 0.0
23/10:00am 11.5 8.5 5.8 68 2.7 SW 11 19 6 10 1025.8 1025.8 0.0
23/09:30am 11.3 7.5 5.8 69 2.6 SSW 15 20 8 11 1025.9 1025.9 0.0
23/09:00am 11.3 7.2 6.0 70 2.5 SSW 17 20 9 11 1026.0 1026.0 0.8
23/08:30am 10.8 7.5 6.2 73 2.2 SW 13 19 7 10 1026.0 1026.0 0.8
23/08:00am 10.1 5.6 6.3 77 1.8 WSW 19 24 10 13 1025.8 1025.8 0.8
23/07:30am 9.3 5.7 6.6 83 1.3 SW 15 22 8 12 1025.3 1025.4 0.8
23/07:00am 7.8 3.3 6.3 90 0.7 WSW 19 22 10 12 1025.1 1025.2 0.8
23/06:30am 5.3 1.5 3.8 90 0.6 WSW 13 15 7 8 1024.7 1024.8 0.8
23/06:00am 4.0 0.3 2.4 89 0.6 WSW 11 13 6 7 1024.3 1024.4 0.8
23/05:30am 4.3 0.3 2.7 89 0.7 SW 13 15 7 8 1024.2 1024.3 0.8
23/05:00am 4.3 0.3 2.7 89 0.7 SW 13 15 7 8 1023.7 1023.7 0.8
23/04:30am 4.5 0.5 2.7 88 0.7 WSW 13 17 7 9 1023.6 1023.6 0.8
23/04:00am 4.5 0.1 2.8 89 0.7 WSW 15 20 8 11 1023.2 1023.2 0.8
23/03:30am 4.4 -0.4 2.6 88 0.7 WSW 17 20 9 11 1023.1 1023.1 0.8
23/03:00am 4.3 0.2 2.3 87 0.8 SW 13 17 7 9 1023.0 1023.0 0.8
23/02:30am 4.2 0.1 2.2 87 0.8 WSW 13 19 7 10 1023.1 1023.1 0.8
23/02:00am 4.6 0.6 2.6 87 0.8 WSW 13 17 7 9 1023.4 1023.4 0.8
23/01:30am 4.6 0.2 2.5 86 0.9 WSW 15 19 8 10 1023.5 1023.5 0.8
23/01:00am 4.6 0.2 2.5 86 0.9 SW 15 17 8 9 1023.6 1023.6 0.8
23/12:30am 4.7 1.0 2.6 86 0.9 SW 11 15 6 8 1023.7 1023.7 0.8
23/12:00am 4.3 0.6 2.2 86 0.9 SW 11 13 6 7 1023.9 1023.9 0.8
 
Date/Time
WST
Temp
°C
App
Temp
°C
Dew
Point
Rel
Hum
%
Delta-T
°C
Wind Press
QNH
hPa
Press
MSL
hPa
Rain
since 9 am
mm
Dir
 
Spd
km/h
Gust
km/h
Spd
kts
Gust
kts
22/11:30pm 3.9 -0.3 1.4 84 1.0 WSW 13 13 7 7 1024.0 1024.0 0.8
22/11:00pm 5.1 1.4 2.5 83 1.1 SW 11 15 6 8 1024.3 1024.4 0.8
22/10:30pm 4.7 0.6 2.4 85 0.9 WSW 13 13 7 7 1024.4 1024.5 0.8
22/10:00pm 4.8 1.1 2.3 84 1.0 SW 11 13 6 7 1024.7 1024.8 0.8
22/09:30pm 5.3 2.0 2.5 82 1.2 SW 9 11 5 6 1024.8 1024.9 0.8
22/09:00pm 5.5 2.5 2.0 78 1.4 SSW 7 9 4 5 1024.6 1024.7 0.8
22/08:30pm 7.2 4.3 2.7 73 1.9 S 7 9 4 5 1024.2 1024.3 0.8
22/08:00pm 8.7 5.7 3.9 72 2.1 S 9 13 5 7 1024.0 1024.0 0.8
22/07:30pm 8.1 5.3 3.0 70 2.2 S 7 9 4 5 1023.6 1023.6 0.8
22/07:00pm 8.7 4.6 2.3 64 2.7 SSW 13 15 7 8 1023.1 1023.1 0.8
22/06:30pm 9.6 6.0 2.9 63 2.9 SSW 11 15 6 8 1022.4 1022.4 0.8
22/06:00pm 10.1 6.6 3.4 63 3.0 SW 11 17 6 9 1021.8 1021.9 0.8
22/05:30pm 10.9 5.9 3.5 60 3.3 SSW 19 28 10 15 1021.3 1021.3 0.8
22/05:00pm 11.0 6.6 4.5 64 3.0 S 17 24 9 13 1020.9 1020.9 0.8
22/04:30pm 12.4 6.9 3.9 56 3.9 S 22 32 12 17 1020.4 1020.4 0.8
22/04:00pm 11.9 5.4 4.6 61 3.4 S 28 39 15 21 1020.0 1020.0 0.8
22/03:40pm 12.7 6.0 3.6 54 4.1 SSW 28 48 15 26 1019.6 1019.6 0.8
22/03:30pm 13.6 6.9 3.9 52 4.5 SW 28 33 15 18 1019.4 1019.4 0.8
22/03:00pm 14.5 9.7 5.6 55 4.3 S 20 32 11 17 1019.1 1019.1 0.8
22/02:30pm 12.8 6.6 4.3 56 3.9 S 26 41 14 22 1018.8 1018.9 0.8
22/02:00pm 13.2 7.0 6.1 62 3.4 S 28 37 15 20 1018.7 1018.7 0.8
22/01:30pm 13.4 6.7 3.5 51 4.5 S 28 46 15 25 1018.6 1018.6 0.8
22/01:00pm 13.7 6.9 5.1 56 4.1 SSW 30 43 16 23 1018.5 1018.5 0.8
22/12:36pm 13.5 7.1 5.4 58 3.9 SSW 28 50 15 27 1018.3 1018.3 0.8
22/12:30pm 14.1 8.7 6.5 60 3.7 S 24 37 13 20 1018.3 1018.3 0.8
22/12:00pm 13.0 7.5 7.7 70 2.6 S 26 39 14 21 1018.5 1018.5 0.8
22/11:40am 11.2 4.9 5.5 68 2.7 S 28 67 15 36 1018.6 1018.6 0.8
22/11:30am 11.6 6.7 7.1 74 2.2 S 22 32 12 17 1018.6 1018.6 0.8
22/11:00am 10.2 4.7 7.4 83 1.4 S 26 43 14 23 1018.7 1018.7 0.8
22/10:30am 11.9 5.3 7.8 76 2.0 SSW 32 46 17 25 1018.4 1018.4 0.8
22/10:00am 11.0 4.6 7.1 77 1.9 S 30 43 16 23 1018.3 1018.3 0.8
22/09:30am 9.6 4.0 7.0 84 1.2 SSW 26 37 14 20 1018.3 1018.3 0.8
22/09:00am 10.9 6.3 8.3 84 1.3 SSW 22 32 12 17 1017.8 1017.8 11.4
22/08:30am 10.7 6.6 8.6 87 1.1 SSW 20 30 11 16 1017.6 1017.6 11.4
22/08:00am 9.2 3.9 7.0 86 1.0 SSW 24 33 13 18 1017.3 1017.3 11.4
22/07:30am 8.8 4.3 6.9 88 0.9 SW 20 32 11 17 1016.6 1016.6 11.4
22/07:00am 8.7 4.2 6.8 88 0.9 SW 20 28 11 15 1016.1 1016.0 11.4
22/06:30am 8.4 3.8 6.5 88 0.9 SW 20 30 11 16 1015.4 1015.4 11.4
22/06:00am 8.4 3.8 6.4 87 0.9 SW 20 32 11 17 1014.9 1014.9 11.4
22/05:30am 8.3 3.3 6.4 88 0.9 SW 22 33 12 18 1014.2 1014.2 11.4
22/05:00am 8.4 3.4 6.5 88 0.9 SW 22 32 12 17 1013.4 1013.3 11.4
22/04:30am 8.4 3.8 6.5 88 0.9 SW 20 32 11 17 1012.9 1012.8 11.4
22/04:00am 8.5 4.2 6.8 89 0.8 SSW 19 28 10 15 1012.4 1012.3 11.4
22/03:30am 8.6 4.6 6.7 88 0.9 SSW 17 26 9 14 1012.1 1012.1 11.4
22/03:00am 8.7 3.8 7.0 89 0.8 S 22 33 12 18 1012.2 1012.2 11.2
22/02:30am 8.5 3.6 7.0 90 0.7 SW 22 32 12 17 1011.9 1011.9 10.4
22/02:00am 8.8 4.0 7.3 90 0.7 SSW 22 32 12 17 1011.8 1011.8 9.6
22/01:32am 8.8 2.8 7.1 89 0.8 SSW 28 46 15 25 1011.2 1011.2 8.8
22/01:30am 8.8 2.0 7.1 89 0.8 SSW 32 46 17 25 1011.3 1011.3 8.8
22/01:00am 9.2 3.3 7.5 89 0.8 SSW 28 39 15 21 1011.3 1011.3 8.2
22/12:30am 9.4 3.9 7.7 89 0.8 SSW 26 39 14 21 1011.1 1011.1 8.0
22/12:00am 9.9 4.2 8.3 90 0.8 S 28 39 15 21 1011.2 1011.2 7.4
 
Date/Time
WST
Temp
°C
App
Temp
°C
Dew
Point
Rel
Hum
%
Delta-T
°C
Wind Press
QNH
hPa
Press
MSL
hPa
Rain
since 9 am
mm
Dir
 
Spd
km/h
Gust
km/h
Spd
kts
Gust
kts
21/11:30pm 10.1 5.2 8.5 90 0.8 SSW 24 32 13 17 1010.7 1010.6 7.0
21/11:00pm 11.4 10.3 9.8 90 0.8 S 6 6 3 3 1010.4 1010.3 4.2
21/10:30pm 11.3 11.3 9.7 90 0.8 CALM 0 0 0 0 1011.3 1011.3 4.0
21/10:00pm 11.3 10.5 9.7 90 0.8 W 4 7 2 4 1011.4 1011.4 4.0
21/09:30pm 11.2 9.8 9.6 90 0.8 WSW 7 9 4 5 1011.0 1011.0 4.0
21/09:00pm 11.4 9.7 9.8 90 0.8 W 9 15 5 8 1010.9 1010.9 3.8
21/08:30pm 11.5 10.8 9.9 90 0.8 WNW 4 9 2 5 1011.1 1011.1 3.8
21/08:00pm 11.4 10.2 9.7 89 0.9 W 6 9 3 5 1010.6 1010.5 3.6
21/07:30pm 11.5 9.8 9.8 89 0.9 NW 9 13 5 7 1010.7 1010.6 2.8
21/07:00pm 11.3 10.1 9.4 88 1.0 WSW 6 9 3 5 1008.9 1008.9 2.2
21/06:30pm 11.5 9.7 9.4 87 1.1 WNW 9 15 5 8 1009.9 1009.8 1.6
21/06:00pm 11.9 8.1 9.1 83 1.4 W 19 33 10 18 1010.1 1010.0 0.4
21/05:30pm 13.2 8.3 8.5 73 2.4 W 24 35 13 19 1009.0 1009.0 0.0
21/05:00pm 13.4 7.7 8.5 72 2.5 W 28 37 15 20 1007.9 1007.8 0.0
21/04:30pm 13.8 6.8 8.4 70 2.7 WSW 35 52 19 28 1007.2 1007.1 0.0
21/04:00pm 15.6 7.5 8.6 63 3.6 WSW 41 61 22 33 1005.7 1005.7 0.0
21/03:36pm 16.7 8.3 8.9 60 4.1 WSW 43 63 23 34 1005.2 1005.1 0.0
21/03:30pm 16.6 7.6 8.8 60 4.1 WSW 46 63 25 34 1005.0 1004.9 0.0
21/03:00pm 18.1 8.7 10.0 59 4.4 WSW 50 70 27 38 1003.8 1003.7 0.0
21/02:55pm 18.7 9.3 10.3 58 4.6 WSW 50 69 27 37 1003.6 1003.5 0.0
21/02:52pm 18.4 8.0 9.2 55 4.9 WSW 54 69 29 37 1003.4 1003.3 0.0
21/02:46pm 23.5 12.7 7.6 36 8.5 W 54 78 29 42 1003.0 1002.9 0.0
21/02:30pm 27.0 16.0 2.8 21 12.1 NNW 50 87 27 47 1001.9 1001.8 0.0
21/02:00pm 27.7 16.4 5.3 24 11.8 NNW 54 74 29 40 1001.6 1001.5 0.0
21/01:30pm 28.1 15.1 5.6 24 11.9 N 63 89 34 48 1001.7 1001.6 0.0
21/01:00pm 28.2 16.0 5.7 24 12.0 N 59 87 32 47 1002.0 1001.9 0.0
21/12:30pm 27.2 16.3 7.1 28 10.8 N 54 80 29 43 1002.9 1002.8 0.0
21/12:00pm 26.9 17.4 6.9 28 10.8 N 46 69 25 37 1003.7 1003.6 0.0
21/11:42am 26.4 17.9 6.9 29 10.4 N 41 67 22 36 1004.3 1004.2 0.0
21/11:30am 26.6 18.0 8.1 31 10.1 N 43 56 23 30 1004.6 1004.5 0.0
21/11:00am 25.6 15.7 6.8 30 10.0 NNW 48 70 26 38 1005.5 1005.5 0.0
21/10:35am 25.1 16.2 6.8 31 9.7 N 43 61 23 33 1006.2 1006.1 0.0
21/10:30am 25.0 16.9 7.2 32 9.5 N 39 57 21 31 1006.2 1006.1 0.0
21/10:05am 24.2 16.4 6.5 32 9.3 N 37 59 20 32 1006.7 1006.6 0.0
21/10:00am 24.0 16.7 7.2 34 8.9 N 35 50 19 27 1006.8 1006.7 0.0
21/09:30am 22.4 16.1 7.4 38 7.9 N 30 43 16 23 1007.8 1007.7 0.0
21/09:00am 21.6 15.4 7.8 41 7.3 N 30 41 16 22 1008.3 1008.3 0.0
21/08:30am 20.3 15.4 8.6 47 6.2 N 24 32 13 17 1008.7 1008.7 0.0

Other Formats:

Comma delimited format used in spreadsheet applications
http://www.bom.gov.au/fwo/IDW60801/IDW60801.94628.axf

JavaScript Object Notation format (JSON) in row-major order
http://www.bom.gov.au/fwo/IDW60801/IDW60801.94628.json